Weather History for Glenwood, MN

Change the Weather History Date:

Saturday, October 6, 2012

  Actual Average Record
Temperature  
Mean Temperature 35 °F -  
Max Temperature 44 °F 62 °F 87 °F (1961)
Min Temperature 26 °F 37 °F 24 °F (2001)
Degree Days  
Heating Degree Days 30    
Moisture  
Dew Point 25 °F    
Average Humidity 66    
Maximum Humidity 87    
Minimum Humidity 39    
Precipitation  
Precipitation 0.00 in - - ()
Sea Level Pressure  
Sea Level Pressure 30.25 in    
Wind  
Wind Speed 11 mph (NW)    
Max Wind Speed 16 mph    
Max Gust Speed 24 mph    
Visibility 10 miles    
Events Snow    
Averages and records for this station are not official NWS values.
T = Trace of Precipitation, MM = Missing Value Source: NWS Daily Summary

Daily Weather History Graph

Daily Weather History Graph

Search for Another Location

Airport:

Trip Planner

Search our weather history database for the weather conditions in past years. The results will help you decide how hot, cold, wet, or windy it might be!

Date:

Astronomy

Oct. 06, 2012 Rise Set
Actual Time 7:26 AM CDT 6:51 PM CDT
Civil Twilight 6:56 AM CDT 7:20 PM CDT
Nautical Twilight 6:22 AM CDT 7:54 PM CDT
Astronomical Twilight 5:47 AM CDT 8:29 PM CDT
Moon 10:54 PM CDT (10/6) 1:35 PM CDT (10/6)
Length of Visible Light 12h 23m
Length of Day
11h 24m
Waning Gibbous, 65% of the Moon is Illuminated
Oct 6
Waning Gibbous
Oct 8
Last Quarter
Oct 15
New
Oct 21
First Quarter
Oct 29
Full

Hourly Weather History & Observations

Time (CDT) Temp. Windchill Dew Point Humidity Pressure Visibility Wind Dir Wind Speed Gust Speed Precip Events Conditions
12:13 AM 33.8 °F 23.5 °F 30.2 °F 87% 30.19 in 10.0 mi NW 16.1 mph 20.7 mph N/A   Overcast
12:33 AM 33.8 °F 23.9 °F 28.4 °F 81% 30.19 in 10.0 mi NW 15.0 mph 23.0 mph N/A   Overcast
12:54 AM 33.8 °F 23.9 °F 30.2 °F 87% 30.19 in 10.0 mi NW 15.0 mph 24.2 mph N/A   Overcast
1:13 AM 33.8 °F 23.9 °F 30.2 °F 87% 30.19 in 10.0 mi NW 15.0 mph 20.7 mph N/A   Overcast
1:33 AM 33.8 °F 23.9 °F 30.2 °F 87% 30.20 in 10.0 mi NW 15.0 mph 18.4 mph N/A   Overcast
1:54 AM 33.8 °F 25.3 °F 30.2 °F 87% 30.20 in 10.0 mi NW 11.5 mph 18.4 mph N/A   Overcast
2:13 AM 33.8 °F 24.3 °F 30.2 °F 87% 30.20 in 10.0 mi NW 13.8 mph - N/A   Overcast
2:34 AM 33.8 °F 23.9 °F 30.2 °F 87% 30.20 in 10.0 mi NW 15.0 mph - N/A   Overcast
2:53 AM 33.8 °F 24.8 °F 30.2 °F 87% 30.20 in 10.0 mi NW 12.7 mph 17.3 mph N/A   Overcast
3:13 AM 33.8 °F 25.3 °F 30.2 °F 87% 30.21 in 10.0 mi NW 11.5 mph - N/A   Overcast
3:34 AM 33.8 °F 25.3 °F 30.2 °F 87% 30.21 in 7.0 mi NW 11.5 mph - N/A Snow Light Snow
3:53 AM 33.8 °F 24.3 °F 30.2 °F 87% 30.21 in 10.0 mi NW 13.8 mph - N/A   Overcast
4:14 AM 33.8 °F 24.3 °F 30.2 °F 87% 30.21 in 10.0 mi NNW 13.8 mph 18.4 mph N/A   Overcast
4:33 AM 33.8 °F 25.8 °F 30.2 °F 87% 30.22 in 10.0 mi NW 10.4 mph - N/A   Overcast
4:53 AM 33.8 °F 25.3 °F 30.2 °F 87% 30.22 in 10.0 mi NW 11.5 mph 17.3 mph N/A   Overcast
5:13 AM 33.8 °F 24.8 °F 28.4 °F 81% 30.22 in 10.0 mi NW 12.7 mph - N/A   Overcast
5:33 AM 33.8 °F 26.4 °F 28.4 °F 81% 30.23 in 10.0 mi NW 9.2 mph - N/A   Overcast
5:54 AM 33.8 °F 24.8 °F 28.4 °F 81% 30.23 in 10.0 mi NW 12.7 mph - N/A   Overcast
6:13 AM 33.8 °F 26.4 °F 28.4 °F 81% 30.24 in 10.0 mi NNW 9.2 mph - N/A   Overcast
6:33 AM 33.8 °F 25.3 °F 28.4 °F 81% 30.24 in 10.0 mi NW 11.5 mph - N/A   Overcast
6:54 AM 33.8 °F 25.3 °F 28.4 °F 81% 30.25 in 10.0 mi NNW 11.5 mph 18.4 mph N/A   Mostly Cloudy
7:13 AM 33.8 °F 26.4 °F 26.6 °F 75% 30.26 in 10.0 mi NNW 9.2 mph - N/A   Scattered Clouds
7:34 AM 33.8 °F 25.8 °F 26.6 °F 75% 30.26 in 10.0 mi NNW 10.4 mph - N/A   Overcast
7:54 AM 33.8 °F 25.3 °F 28.4 °F 81% 30.27 in 10.0 mi NNW 11.5 mph - N/A   Overcast
8:33 AM 33.8 °F 25.8 °F 26.6 °F 75% 30.28 in 10.0 mi NW 10.4 mph - N/A   Overcast
9:13 AM 33.8 °F 25.3 °F 28.4 °F 81% 30.30 in 10.0 mi NW 11.5 mph - N/A   Overcast
9:34 AM 35.6 °F 26.6 °F 26.6 °F 70% 30.30 in 10.0 mi NW 13.8 mph - N/A   Overcast
9:53 AM 35.6 °F 26.6 °F 24.8 °F 65% 30.31 in 10.0 mi NW 13.8 mph 18.4 mph N/A   Overcast
10:13 AM 35.6 °F 28.0 °F 23.0 °F 60% 30.31 in 10.0 mi NNW 10.4 mph 13.8 mph N/A   Overcast
10:34 AM 35.6 °F 28.0 °F 24.8 °F 65% 30.32 in 10.0 mi NW 10.4 mph - N/A   Overcast
10:53 AM 35.6 °F 28.6 °F 24.8 °F 65% 30.32 in 10.0 mi North 9.2 mph - N/A   Overcast
11:13 AM 35.6 °F 27.5 °F 24.8 °F 65% 30.32 in 10.0 mi North 11.5 mph - N/A   Overcast
11:34 AM 37.4 °F 30.8 °F 23.0 °F 56% 30.32 in 10.0 mi NNE 9.2 mph - N/A   Overcast
11:53 AM 37.4 °F 30.8 °F 23.0 °F 56% 30.32 in 10.0 mi NW 9.2 mph - N/A   Overcast
12:13 PM 37.4 °F 31.4 °F 21.2 °F 52% 30.31 in 10.0 mi North 8.1 mph - N/A   Mostly Cloudy
12:34 PM 39.2 °F 33.0 °F 21.2 °F 49% 30.31 in 10.0 mi NNW 9.2 mph 17.3 mph N/A   Mostly Cloudy
12:53 PM 39.2 °F 33.0 °F 21.2 °F 49% 30.31 in 10.0 mi NNW 9.2 mph - N/A   Mostly Cloudy
1:13 PM 42.8 °F 37.5 °F 21.2 °F 42% 30.30 in 10.0 mi North 9.2 mph - N/A   Mostly Cloudy
1:34 PM 41.0 °F 35.2 °F 21.2 °F 45% 30.30 in 10.0 mi North 9.2 mph - N/A   Mostly Cloudy
1:53 PM 41.0 °F 34.3 °F 21.2 °F 45% 30.30 in 10.0 mi NNW 11.5 mph - N/A   Overcast
2:13 PM 42.8 °F 35.8 °F 21.2 °F 42% 30.29 in 10.0 mi NNW 13.8 mph 18.4 mph N/A   Overcast
2:34 PM 42.8 °F 37.5 °F 19.4 °F 39% 30.28 in 10.0 mi North 9.2 mph - N/A   Overcast
2:53 PM 42.8 °F 40.1 °F 21.2 °F 42% 30.28 in 10.0 mi NW 4.6 mph 10.4 mph N/A   Overcast
3:13 PM 42.8 °F 40.1 °F 21.2 °F 42% 30.27 in 10.0 mi North 4.6 mph - N/A   Overcast
3:34 PM 44.6 °F 40.2 °F 21.2 °F 39% 30.27 in 10.0 mi NW 8.1 mph - N/A   Mostly Cloudy
3:53 PM 42.8 °F 36.6 °F 21.2 °F 42% 30.26 in 10.0 mi NW 11.5 mph - N/A   Mostly Cloudy
4:13 PM 44.6 °F 39.7 °F 21.2 °F 39% 30.26 in 10.0 mi WNW 9.2 mph - N/A   Mostly Cloudy
4:34 PM 42.8 °F 38.6 °F 21.2 °F 42% 30.25 in 10.0 mi WNW 6.9 mph - N/A   Mostly Cloudy
4:53 PM 44.6 °F 38.8 °F 21.2 °F 39% 30.25 in 10.0 mi NW 11.5 mph - N/A   Mostly Cloudy
5:13 PM 42.8 °F 38.6 °F 21.2 °F 42% 30.25 in 10.0 mi NNW 6.9 mph - N/A   Scattered Clouds
5:34 PM 42.8 °F 39.3 °F 21.2 °F 42% 30.24 in 10.0 mi NNW 5.8 mph - N/A   Scattered Clouds
5:53 PM 42.8 °F 37.5 °F 19.4 °F 39% 30.24 in 10.0 mi NNW 9.2 mph - N/A   Scattered Clouds
6:14 PM 41.0 °F 34.7 °F 21.2 °F 45% 30.24 in 10.0 mi WNW 10.4 mph - N/A   Clear
6:33 PM 39.2 °F 34.2 °F 21.2 °F 49% 30.24 in 10.0 mi NW 6.9 mph - N/A   Clear
6:53 PM 35.6 °F 29.9 °F 21.2 °F 56% 30.24 in 10.0 mi WNW 6.9 mph - N/A   Clear
7:13 PM 33.8 °F 28.6 °F 19.4 °F 56% 30.25 in 10.0 mi WNW 5.8 mph - N/A   Clear
7:33 PM 33.8 °F 28.6 °F 19.4 °F 56% 30.25 in 10.0 mi WNW 5.8 mph - N/A   Clear
7:53 PM 33.8 °F 28.6 °F 21.2 °F 60% 30.25 in 10.0 mi WNW 5.8 mph - N/A   Clear
8:13 PM 32.0 °F 26.4 °F 19.4 °F 60% 30.25 in 10.0 mi WNW 5.8 mph - N/A   Clear
8:33 PM 32.0 °F 26.4 °F 21.2 °F 64% 30.25 in 10.0 mi West 5.8 mph - N/A   Clear
8:53 PM 32.0 °F 27.5 °F 21.2 °F 64% 30.25 in 10.0 mi West 4.6 mph - N/A   Clear
9:14 PM 30.2 °F 25.4 °F 21.2 °F 69% 30.25 in 10.0 mi West 4.6 mph - N/A   Clear
9:33 PM 30.2 °F 25.4 °F 21.2 °F 69% 30.25 in 10.0 mi West 4.6 mph - N/A   Clear
9:53 PM 30.2 °F 25.4 °F 21.2 °F 69% 30.25 in 10.0 mi WSW 4.6 mph - N/A   Clear
10:14 PM 28.4 °F 23.3 °F 21.2 °F 74% 30.24 in 10.0 mi WSW 4.6 mph - N/A   Clear
10:33 PM 26.6 °F 20.0 °F 21.2 °F 80% 30.24 in 10.0 mi WSW 5.8 mph - N/A   Clear
10:53 PM 30.2 °F 25.4 °F 23.0 °F 75% 30.24 in 10.0 mi WSW 4.6 mph - N/A   Clear
11:14 PM 26.6 °F 20.0 °F 23.0 °F 86% 30.23 in 10.0 mi WSW 5.8 mph - N/A   Clear
11:33 PM 26.6 °F 20.0 °F 23.0 °F 86% 30.23 in 10.0 mi SW 5.8 mph - N/A   Clear